Year,Month,Day,Hour,Minute,Value (Times are PST for temperature in C)
2008,09,30,00,00,11.30
2008,09,30,00,01,11.30
2008,09,30,00,02,11.30
2008,09,30,00,03,11.30
2008,09,30,00,04,11.20
2008,09,30,00,05,11.20
2008,09,30,00,06,11.20
2008,09,30,00,07,11.20
2008,09,30,00,08,11.10
2008,09,30,00,09,11.10
2008,09,30,00,10,11.10
2008,09,30,00,11,11.10
2008,09,30,00,12,11.20
2008,09,30,00,13,11.20
2008,09,30,00,14,11.20
2008,09,30,00,15,11.20
2008,09,30,00,16,11.20
2008,09,30,00,17,11.20
2008,09,30,00,18,11.20
2008,09,30,00,19,11.20
2008,09,30,00,20,11.20
2008,09,30,00,21,11.20
2008,09,30,00,22,11.20
2008,09,30,00,23,11.20
2008,09,30,00,24,11.20
2008,09,30,00,25,11.10
2008,09,30,00,26,11.10
2008,09,30,00,27,11.10
2008,09,30,00,28,11.10
2008,09,30,00,29,11.00
2008,09,30,00,30,11.00
2008,09,30,00,31,11.00
2008,09,30,00,32,10.90
2008,09,30,00,33,10.90
2008,09,30,00,34,10.90
2008,09,30,00,35,10.90
2008,09,30,00,36,10.90
2008,09,30,00,37,10.80
2008,09,30,00,38,10.80
2008,09,30,00,39,10.80
2008,09,30,00,40,10.80
2008,09,30,00,41,10.80
2008,09,30,00,42,10.80
2008,09,30,00,43,10.80
2008,09,30,00,44,10.80
2008,09,30,00,45,10.80
2008,09,30,00,46,10.80
2008,09,30,00,47,10.80
2008,09,30,00,48,10.80
2008,09,30,00,49,10.80
2008,09,30,00,50,10.80
2008,09,30,00,51,10.80
2008,09,30,00,52,10.80
2008,09,30,00,53,10.80
2008,09,30,00,54,10.80
2008,09,30,00,55,10.90
2008,09,30,00,56,10.90
2008,09,30,00,57,10.90
2008,09,30,00,58,10.90
2008,09,30,00,59,10.90
2008,09,30,01,00,11.00
2008,09,30,01,01,11.10
2008,09,30,01,02,11.20
2008,09,30,01,03,11.20
2008,09,30,01,04,11.30
2008,09,30,01,05,11.40
2008,09,30,01,06,11.40
2008,09,30,01,07,11.50
2008,09,30,01,08,11.50
2008,09,30,01,09,11.60
2008,09,30,01,10,11.60
2008,09,30,01,11,11.70
2008,09,30,01,12,11.70
2008,09,30,01,13,11.80
2008,09,30,01,14,11.90
2008,09,30,01,15,11.90
2008,09,30,01,16,11.90
2008,09,30,01,17,12.00
2008,09,30,01,18,12.00
2008,09,30,01,19,12.00
2008,09,30,01,20,12.10
2008,09,30,01,21,12.10
2008,09,30,01,22,12.10
2008,09,30,01,23,12.20
2008,09,30,01,24,12.20
2008,09,30,01,25,12.30
2008,09,30,01,26,12.30
2008,09,30,01,27,12.40
2008,09,30,01,28,12.50
2008,09,30,01,29,12.50
2008,09,30,01,30,12.60
2008,09,30,01,31,12.70
2008,09,30,01,32,12.70
2008,09,30,01,33,12.80
2008,09,30,01,34,12.80
2008,09,30,01,35,12.90
2008,09,30,01,36,12.90
2008,09,30,01,37,13.10
2008,09,30,01,38,13.10
2008,09,30,01,39,13.20
2008,09,30,01,40,13.20
2008,09,30,01,41,13.20
2008,09,30,01,42,13.20
2008,09,30,01,43,13.20
2008,09,30,01,44,13.10
2008,09,30,01,45,13.10
2008,09,30,01,46,13.10
2008,09,30,01,47,13.10
2008,09,30,01,48,13.00
2008,09,30,01,49,13.00
2008,09,30,01,50,12.90
2008,09,30,01,51,12.90
2008,09,30,01,52,12.90
2008,09,30,01,53,12.90
2008,09,30,01,54,12.80
2008,09,30,01,55,12.80
2008,09,30,01,56,12.80
2008,09,30,01,57,12.70
2008,09,30,01,58,12.70
2008,09,30,01,59,12.60
2008,09,30,02,00,12.60
2008,09,30,02,01,12.50
2008,09,30,02,02,12.50
2008,09,30,02,03,12.40
2008,09,30,02,04,12.40
2008,09,30,02,05,12.40
2008,09,30,02,06,12.30
2008,09,30,02,07,12.30
2008,09,30,02,08,12.30
2008,09,30,02,09,12.30
2008,09,30,02,10,12.30
2008,09,30,02,11,12.20
2008,09,30,02,12,12.20
2008,09,30,02,13,12.20
2008,09,30,02,14,12.20
2008,09,30,02,15,12.20
2008,09,30,02,16,12.10
2008,09,30,02,17,12.10
2008,09,30,02,18,12.10
2008,09,30,02,19,12.10
2008,09,30,02,20,12.00
2008,09,30,02,21,12.00
2008,09,30,02,22,11.90
2008,09,30,02,23,11.90
2008,09,30,02,24,11.90
2008,09,30,02,25,11.90
2008,09,30,02,26,11.80
2008,09,30,02,27,11.80
2008,09,30,02,28,11.80
2008,09,30,02,29,11.80
2008,09,30,02,30,11.80
2008,09,30,02,31,11.70
2008,09,30,02,32,11.70
2008,09,30,02,33,11.70
2008,09,30,02,34,11.70
2008,09,30,02,35,11.80
2008,09,30,02,36,11.80
2008,09,30,02,37,11.80
2008,09,30,02,38,11.90
2008,09,30,02,39,11.90
2008,09,30,02,40,11.90
2008,09,30,02,41,11.90
2008,09,30,02,42,11.90
2008,09,30,02,43,11.90
2008,09,30,02,44,11.90
2008,09,30,02,45,11.90
2008,09,30,02,46,11.80
2008,09,30,02,47,11.80
2008,09,30,02,48,11.80
2008,09,30,02,49,11.80
2008,09,30,02,50,11.80
2008,09,30,02,51,11.80
2008,09,30,02,52,11.80
2008,09,30,02,53,11.80
2008,09,30,02,54,11.70
2008,09,30,02,55,11.70
2008,09,30,02,56,11.70
2008,09,30,02,57,11.70
2008,09,30,02,58,11.70
2008,09,30,02,59,11.70
2008,09,30,03,00,11.70
2008,09,30,03,01,11.60
2008,09,30,03,02,11.60
2008,09,30,03,03,11.60
2008,09,30,03,04,11.60
2008,09,30,03,05,11.60
2008,09,30,03,06,11.60
2008,09,30,03,07,11.60
2008,09,30,03,08,11.60
2008,09,30,03,09,11.60
2008,09,30,03,10,11.60
2008,09,30,03,11,11.60
2008,09,30,03,12,11.60
2008,09,30,03,13,11.60
2008,09,30,03,14,11.60
2008,09,30,03,15,11.60
2008,09,30,03,16,11.60
2008,09,30,03,17,11.60
2008,09,30,03,18,11.60
2008,09,30,03,19,11.60
2008,09,30,03,20,11.60
2008,09,30,03,21,11.60
2008,09,30,03,22,11.60
2008,09,30,03,23,11.60
2008,09,30,03,24,11.60
2008,09,30,03,25,11.60
2008,09,30,03,26,11.60
2008,09,30,03,27,11.60
2008,09,30,03,28,11.60
2008,09,30,03,29,11.50
2008,09,30,03,30,11.50
2008,09,30,03,31,11.50
2008,09,30,03,32,11.40
2008,09,30,03,33,11.40
2008,09,30,03,34,11.30
2008,09,30,03,35,11.30
2008,09,30,03,36,11.30
2008,09,30,03,37,11.20
2008,09,30,03,38,11.20
2008,09,30,03,39,11.20
2008,09,30,03,40,11.10
2008,09,30,03,41,11.10
2008,09,30,03,42,11.10
2008,09,30,03,43,11.10
2008,09,30,03,44,11.00
2008,09,30,03,45,11.00
2008,09,30,03,46,10.90
2008,09,30,03,47,10.90
2008,09,30,03,48,10.90
2008,09,30,03,49,10.90
2008,09,30,03,50,10.90
2008,09,30,03,51,10.90
2008,09,30,03,52,10.90
2008,09,30,03,53,10.80
2008,09,30,03,54,10.80
2008,09,30,03,55,10.80
2008,09,30,03,56,10.80
2008,09,30,03,57,10.80
2008,09,30,03,58,10.80
2008,09,30,03,59,10.70
2008,09,30,04,00,10.70
2008,09,30,04,01,10.70
2008,09,30,04,02,10.80
2008,09,30,04,03,10.70
2008,09,30,04,04,10.70
2008,09,30,04,05,10.70
2008,09,30,04,22,10.90
2008,09,30,04,27,10.90
2008,09,30,04,28,10.90
2008,09,30,04,29,10.90
2008,09,30,04,30,10.80
2008,09,30,04,31,10.80
2008,09,30,04,32,10.90
2008,09,30,04,33,10.90
2008,09,30,04,34,10.90
2008,09,30,04,35,10.90
2008,09,30,04,36,10.90
2008,09,30,04,37,10.90
2008,09,30,04,38,10.90
2008,09,30,04,39,10.90
2008,09,30,04,40,10.90
2008,09,30,04,41,10.80
2008,09,30,04,42,10.80
2008,09,30,04,43,10.80
2008,09,30,04,44,10.70
2008,09,30,04,45,10.70
2008,09,30,04,46,10.70
2008,09,30,04,47,10.70
2008,09,30,04,48,10.70
2008,09,30,04,49,10.70
2008,09,30,04,50,10.60
2008,09,30,04,51,10.70
2008,09,30,04,52,10.70
2008,09,30,04,53,10.70
2008,09,30,04,54,10.70
2008,09,30,04,55,10.70
2008,09,30,04,56,10.70
2008,09,30,04,57,10.70
2008,09,30,04,58,10.70
2008,09,30,04,59,10.70
2008,09,30,05,00,10.70
2008,09,30,05,01,10.70
2008,09,30,05,02,10.70
2008,09,30,05,03,10.70
2008,09,30,05,04,10.70
2008,09,30,05,05,10.70
2008,09,30,05,06,10.60
2008,09,30,05,07,10.60
2008,09,30,05,08,10.60
2008,09,30,05,09,10.60
2008,09,30,05,10,10.60
2008,09,30,05,11,10.60
2008,09,30,05,12,10.60
2008,09,30,05,13,10.60
2008,09,30,05,14,10.60
2008,09,30,05,15,10.60
2008,09,30,05,16,10.60
2008,09,30,05,17,10.50
2008,09,30,05,18,10.50
2008,09,30,05,19,10.50
2008,09,30,05,20,10.50
2008,09,30,05,21,10.50
2008,09,30,05,22,10.40
2008,09,30,05,23,10.40
2008,09,30,05,24,10.40
2008,09,30,05,25,10.40
2008,09,30,05,26,10.30
2008,09,30,05,27,10.30
2008,09,30,05,28,10.30
2008,09,30,05,29,10.30
2008,09,30,05,30,10.30
2008,09,30,05,31,10.30
2008,09,30,05,32,10.40
2008,09,30,05,33,10.40
2008,09,30,05,34,10.40
2008,09,30,05,35,10.40
2008,09,30,05,36,10.40
2008,09,30,05,37,10.40
2008,09,30,05,38,10.50
2008,09,30,05,39,10.50
2008,09,30,05,40,10.50
2008,09,30,05,41,10.60
2008,09,30,05,42,10.60
2008,09,30,05,43,10.60
2008,09,30,05,44,10.60
2008,09,30,05,45,10.60
2008,09,30,05,46,10.60
2008,09,30,05,47,10.60
2008,09,30,05,48,10.60
2008,09,30,05,49,10.60
2008,09,30,05,50,10.50
2008,09,30,05,51,10.50
2008,09,30,05,52,10.50
2008,09,30,05,53,10.40
2008,09,30,05,54,10.40
2008,09,30,05,55,10.40
2008,09,30,05,56,10.40
2008,09,30,05,57,10.30
2008,09,30,05,58,10.30
2008,09,30,05,59,10.30
2008,09,30,06,00,10.30
2008,09,30,06,01,10.20
2008,09,30,06,02,10.20
2008,09,30,06,03,10.20
2008,09,30,06,04,10.20
2008,09,30,06,05,10.10
2008,09,30,06,06,10.10
2008,09,30,06,07,10.10
2008,09,30,06,08,10.00
2008,09,30,06,09,10.00
2008,09,30,06,10,9.90
2008,09,30,06,11,9.90
2008,09,30,06,12,9.90
2008,09,30,06,13,9.80
2008,09,30,06,14,9.80
2008,09,30,06,15,9.80
2008,09,30,06,16,9.70
2008,09,30,06,17,9.70
2008,09,30,06,18,9.70
2008,09,30,06,19,9.70
2008,09,30,06,20,9.70
2008,09,30,06,21,9.60
2008,09,30,06,22,9.60
2008,09,30,06,23,9.60
2008,09,30,06,24,9.60
2008,09,30,06,25,9.60
2008,09,30,06,26,9.60
2008,09,30,06,27,9.60
2008,09,30,06,28,9.60
2008,09,30,06,29,9.50
2008,09,30,06,30,9.60
2008,09,30,06,31,9.60
2008,09,30,06,32,9.60
2008,09,30,06,33,9.60
2008,09,30,06,34,9.60
2008,09,30,06,35,9.60
2008,09,30,06,36,9.70
2008,09,30,06,37,9.70
2008,09,30,06,38,9.70
2008,09,30,06,39,9.70
2008,09,30,06,40,9.70
2008,09,30,06,41,9.70
2008,09,30,06,42,9.70
2008,09,30,06,43,9.70
2008,09,30,06,44,9.70
2008,09,30,06,45,9.80
2008,09,30,06,46,9.70
2008,09,30,06,47,9.70
2008,09,30,06,48,9.70
2008,09,30,06,49,9.70
2008,09,30,06,50,9.70
2008,09,30,06,51,9.70
2008,09,30,06,52,9.70
2008,09,30,06,53,9.60
2008,09,30,06,54,9.60
2008,09,30,06,55,9.60
2008,09,30,06,56,9.60
2008,09,30,06,57,9.60
2008,09,30,06,58,9.60
2008,09,30,06,59,9.60
2008,09,30,07,00,9.60
2008,09,30,07,01,9.60
2008,09,30,07,02,9.60
2008,09,30,07,03,9.60
2008,09,30,07,04,9.50
2008,09,30,07,05,9.50
2008,09,30,07,06,9.50
2008,09,30,07,07,9.40
2008,09,30,07,08,9.40
2008,09,30,07,09,9.40
2008,09,30,07,10,9.40
2008,09,30,07,11,9.40
2008,09,30,07,12,9.30
2008,09,30,07,13,9.30
2008,09,30,07,14,9.30
2008,09,30,07,15,9.30
2008,09,30,07,16,9.30
2008,09,30,07,17,9.30
2008,09,30,07,18,9.30
2008,09,30,07,19,9.30
2008,09,30,07,20,9.30
2008,09,30,07,21,9.20
2008,09,30,07,22,9.20
2008,09,30,07,23,9.20
2008,09,30,07,24,9.20
2008,09,30,07,25,9.20
2008,09,30,07,26,9.20
2008,09,30,07,27,9.20
2008,09,30,07,28,9.20
2008,09,30,07,29,9.30
2008,09,30,07,30,9.30
2008,09,30,07,31,9.30
2008,09,30,07,32,9.30
2008,09,30,07,33,9.30
2008,09,30,07,34,9.40
2008,09,30,07,35,9.40
2008,09,30,07,36,9.40
2008,09,30,07,37,9.40
2008,09,30,07,38,9.40
2008,09,30,07,39,9.50
2008,09,30,07,40,9.50
2008,09,30,07,41,9.50
2008,09,30,07,42,9.60
2008,09,30,07,43,9.60
2008,09,30,07,44,9.60
2008,09,30,07,45,9.70
2008,09,30,07,46,9.70
2008,09,30,07,47,9.80
2008,09,30,07,48,9.80
2008,09,30,07,49,9.90
2008,09,30,07,50,9.90
2008,09,30,07,51,10.00
2008,09,30,07,52,10.10
2008,09,30,07,53,10.10
2008,09,30,07,54,10.20
2008,09,30,07,55,10.20
2008,09,30,07,56,10.30
2008,09,30,07,57,10.30
2008,09,30,07,58,10.30
2008,09,30,07,59,10.30
2008,09,30,08,00,10.40
2008,09,30,08,01,10.40
2008,09,30,08,02,10.50
2008,09,30,08,03,10.50
2008,09,30,08,04,10.60
2008,09,30,08,05,10.70
2008,09,30,08,06,10.70
2008,09,30,08,07,10.70
2008,09,30,08,08,10.80
2008,09,30,08,09,10.80
2008,09,30,08,10,10.80
2008,09,30,08,11,10.90
2008,09,30,08,12,11.00
2008,09,30,08,13,11.00
2008,09,30,08,14,11.20
2008,09,30,08,15,11.30
2008,09,30,08,16,11.50
2008,09,30,08,17,11.60
2008,09,30,08,18,11.70
2008,09,30,08,19,11.70
2008,09,30,08,20,11.80
2008,09,30,08,21,11.80
2008,09,30,08,22,11.90
2008,09,30,08,23,12.00
2008,09,30,08,24,12.10
2008,09,30,08,25,12.20
2008,09,30,08,26,12.20
2008,09,30,08,27,12.30
2008,09,30,08,28,12.30
2008,09,30,08,29,12.40
2008,09,30,08,30,12.50
2008,09,30,08,31,12.60
2008,09,30,08,32,12.60
2008,09,30,08,33,12.70
2008,09,30,08,34,12.80
2008,09,30,08,35,12.90
2008,09,30,08,36,12.90
2008,09,30,08,37,13.00
2008,09,30,08,38,13.00
2008,09,30,08,39,13.10
2008,09,30,08,40,13.20
2008,09,30,08,41,13.20
2008,09,30,08,42,13.30
2008,09,30,08,43,13.40
2008,09,30,08,44,13.40
2008,09,30,08,45,13.40
2008,09,30,08,46,13.40
2008,09,30,08,47,13.50
2008,09,30,08,48,13.50
2008,09,30,08,49,13.50
2008,09,30,08,50,13.40
2008,09,30,08,51,13.40
2008,09,30,08,52,13.40
2008,09,30,08,53,13.30
2008,09,30,08,54,13.30
2008,09,30,08,55,13.30
2008,09,30,08,56,13.30
2008,09,30,08,57,13.30
2008,09,30,08,58,13.20
2008,09,30,08,59,13.20
2008,09,30,09,00,13.20
2008,09,30,09,01,13.20
2008,09,30,09,02,13.20
2008,09,30,09,03,13.20
2008,09,30,09,04,13.10
2008,09,30,09,05,13.00
2008,09,30,09,06,13.00
2008,09,30,09,07,13.00
2008,09,30,09,08,13.10
2008,09,30,09,09,13.10
2008,09,30,09,10,13.20
2008,09,30,09,11,13.20
2008,09,30,09,12,13.30
2008,09,30,09,13,13.40
2008,09,30,09,14,13.50
2008,09,30,09,15,13.60
2008,09,30,09,16,13.70
2008,09,30,09,17,13.70
2008,09,30,09,18,13.80
2008,09,30,09,19,13.80
2008,09,30,09,20,13.80
2008,09,30,09,21,13.80
2008,09,30,09,22,13.90
2008,09,30,09,23,13.90
2008,09,30,09,24,13.90
2008,09,30,09,25,13.90
2008,09,30,09,26,13.90
2008,09,30,09,27,13.90
2008,09,30,09,28,13.80
2008,09,30,09,29,13.80
2008,09,30,09,30,13.80
2008,09,30,09,31,13.70
2008,09,30,09,32,13.70
2008,09,30,09,33,13.70
2008,09,30,09,34,13.70
2008,09,30,09,35,13.60
2008,09,30,09,36,13.60
2008,09,30,09,37,13.50
2008,09,30,09,38,13.40
2008,09,30,09,39,13.30
2008,09,30,09,40,13.20
2008,09,30,09,41,13.10
2008,09,30,09,42,13.00
2008,09,30,09,43,12.90
2008,09,30,09,44,12.90
2008,09,30,09,45,13.00
2008,09,30,09,46,13.00
2008,09,30,09,47,13.10
2008,09,30,09,48,13.10
2008,09,30,09,49,13.20
2008,09,30,09,50,13.30
2008,09,30,09,51,13.40
2008,09,30,09,52,13.60
2008,09,30,09,53,13.80
2008,09,30,09,54,13.90
2008,09,30,09,55,13.90
2008,09,30,09,56,14.00
2008,09,30,09,57,14.00
2008,09,30,09,58,13.90
2008,09,30,09,59,13.90
2008,09,30,10,00,13.90
2008,09,30,10,01,13.80
2008,09,30,10,02,13.70
2008,09,30,10,03,13.60
2008,09,30,10,04,13.60
2008,09,30,10,05,13.60
2008,09,30,10,06,13.60
2008,09,30,10,07,13.70
2008,09,30,10,08,13.70
2008,09,30,10,09,13.80
2008,09,30,10,10,13.80
2008,09,30,10,11,13.80
2008,09,30,10,12,13.80
2008,09,30,10,13,13.80
2008,09,30,10,14,13.80
2008,09,30,10,15,13.80
2008,09,30,10,16,13.80
2008,09,30,10,17,13.80
2008,09,30,10,18,13.80
2008,09,30,10,19,13.80
2008,09,30,10,20,13.70
2008,09,30,10,21,13.70
2008,09,30,10,22,13.70
2008,09,30,10,23,13.80
2008,09,30,10,24,13.80
2008,09,30,10,25,13.70
2008,09,30,10,26,13.70
2008,09,30,10,27,13.70
2008,09,30,10,28,13.70
2008,09,30,10,29,13.60
2008,09,30,10,30,13.60
2008,09,30,10,31,13.60
2008,09,30,10,32,13.60
2008,09,30,10,33,13.60
2008,09,30,10,34,13.50
2008,09,30,10,35,13.50
2008,09,30,10,36,13.50
2008,09,30,10,37,13.50
2008,09,30,10,38,13.50
2008,09,30,10,39,13.50
2008,09,30,10,40,13.50
2008,09,30,10,41,13.50
2008,09,30,10,42,13.60
2008,09,30,10,43,13.60
2008,09,30,10,44,13.60
2008,09,30,10,45,13.60
2008,09,30,10,46,13.70
2008,09,30,10,47,13.70
2008,09,30,10,48,13.80
2008,09,30,10,49,13.80
2008,09,30,10,50,13.80
2008,09,30,10,51,13.80
2008,09,30,10,52,13.80
2008,09,30,10,53,13.80
2008,09,30,10,54,13.80
2008,09,30,10,55,13.90
2008,09,30,10,56,13.90
2008,09,30,10,57,13.90
2008,09,30,10,58,14.00
2008,09,30,10,59,14.00
2008,09,30,11,00,14.00
2008,09,30,11,01,14.00
2008,09,30,11,02,14.00
2008,09,30,11,03,14.10
2008,09,30,11,04,14.10
2008,09,30,11,05,14.10
2008,09,30,11,06,14.20
2008,09,30,11,07,14.20
2008,09,30,11,08,14.20
2008,09,30,11,09,14.30
2008,09,30,11,10,14.40
2008,09,30,11,11,14.40
2008,09,30,11,12,14.50
2008,09,30,11,13,14.60
2008,09,30,11,14,14.70
2008,09,30,11,15,14.80
2008,09,30,11,16,14.80
2008,09,30,11,17,15.00
2008,09,30,11,18,15.00
2008,09,30,11,19,15.00
2008,09,30,11,20,14.90
2008,09,30,11,21,14.80
2008,09,30,11,22,14.60
2008,09,30,11,23,14.60
2008,09,30,11,24,14.50
2008,09,30,11,25,14.30
2008,09,30,11,26,14.20
2008,09,30,11,27,14.00
2008,09,30,11,28,13.80
2008,09,30,11,29,13.70
2008,09,30,11,30,13.50
2008,09,30,11,31,13.30
2008,09,30,11,32,13.30
2008,09,30,11,33,13.20
2008,09,30,11,34,13.20
2008,09,30,11,35,13.20
2008,09,30,11,36,13.20
2008,09,30,11,37,13.20
2008,09,30,11,38,13.20
2008,09,30,11,39,13.30
2008,09,30,11,40,13.30
2008,09,30,11,41,13.30
2008,09,30,11,42,13.40
2008,09,30,11,43,13.50
2008,09,30,11,44,13.50
2008,09,30,11,45,13.60
2008,09,30,11,46,13.70
2008,09,30,11,47,13.70
2008,09,30,11,48,13.80
2008,09,30,11,49,13.80
2008,09,30,11,50,13.80
2008,09,30,11,51,13.80
2008,09,30,11,52,13.80
2008,09,30,11,53,13.80
2008,09,30,11,54,13.80
2008,09,30,11,55,13.80
2008,09,30,11,56,13.80
2008,09,30,11,57,13.80
2008,09,30,11,58,13.90
2008,09,30,11,59,13.90
2008,09,30,12,00,14.00
2008,09,30,12,01,14.10
2008,09,30,12,02,14.20
2008,09,30,12,03,14.30
2008,09,30,12,04,14.50
2008,09,30,12,05,14.60
2008,09,30,12,06,14.80
2008,09,30,12,07,14.90
2008,09,30,12,08,15.00
2008,09,30,12,09,15.00
2008,09,30,12,10,15.00
2008,09,30,12,11,15.00
2008,09,30,12,12,15.00
2008,09,30,12,13,15.00
2008,09,30,12,14,15.00
2008,09,30,12,15,15.00
2008,09,30,12,16,15.00
2008,09,30,12,17,15.00
2008,09,30,12,18,15.00
2008,09,30,12,19,15.00
2008,09,30,12,20,15.00
2008,09,30,12,21,15.00
2008,09,30,12,22,15.00
2008,09,30,12,23,15.00
2008,09,30,12,24,14.90
2008,09,30,12,25,14.90
2008,09,30,12,26,14.80
2008,09,30,12,27,14.80
2008,09,30,12,28,14.80
2008,09,30,12,29,14.80
2008,09,30,12,30,14.90
2008,09,30,12,31,15.00
2008,09,30,12,32,15.00
2008,09,30,12,33,15.00
2008,09,30,12,34,15.00
2008,09,30,12,35,15.10
2008,09,30,12,36,15.20
2008,09,30,12,37,15.20
2008,09,30,12,38,15.30
2008,09,30,12,39,15.30
2008,09,30,12,40,15.30
2008,09,30,12,41,15.30
2008,09,30,12,42,15.40
2008,09,30,12,43,15.50
2008,09,30,12,44,15.60
2008,09,30,12,45,15.60
2008,09,30,12,46,15.60
2008,09,30,12,47,15.70
2008,09,30,12,48,15.70
2008,09,30,12,49,15.80
2008,09,30,12,50,15.80
2008,09,30,12,51,15.80
2008,09,30,12,52,15.80
2008,09,30,12,53,15.90
2008,09,30,12,54,15.90
2008,09,30,12,55,15.90
2008,09,30,12,56,15.90
2008,09,30,12,57,15.90
2008,09,30,12,58,15.80
2008,09,30,12,59,15.80
2008,09,30,13,00,15.70
2008,09,30,13,01,15.70
2008,09,30,13,02,15.70
2008,09,30,13,03,15.70
2008,09,30,13,04,15.70
2008,09,30,13,05,15.80
2008,09,30,13,06,15.80
2008,09,30,13,07,15.80
2008,09,30,13,08,15.80
2008,09,30,13,09,15.90
2008,09,30,13,10,15.90
2008,09,30,13,11,16.00
2008,09,30,13,12,16.10
2008,09,30,13,13,16.20
2008,09,30,13,14,16.20
2008,09,30,13,15,16.00
2008,09,30,13,16,15.70
2008,09,30,13,17,15.50
2008,09,30,13,18,15.20
2008,09,30,13,19,15.00
2008,09,30,13,20,15.00
2008,09,30,13,21,14.90
2008,09,30,13,22,14.60
2008,09,30,13,23,14.50
2008,09,30,13,24,14.40
2008,09,30,13,25,14.40
2008,09,30,13,26,14.40
2008,09,30,13,27,14.50
2008,09,30,13,28,14.60
2008,09,30,13,29,14.70
2008,09,30,13,30,14.80
2008,09,30,13,31,14.90
2008,09,30,13,32,15.00
2008,09,30,13,33,15.00
2008,09,30,13,34,15.10
2008,09,30,13,35,15.20
2008,09,30,13,36,15.30
2008,09,30,13,37,15.30
2008,09,30,13,38,15.30
2008,09,30,13,39,15.30
2008,09,30,13,40,15.40
2008,09,30,13,41,15.50
2008,09,30,13,42,15.50
2008,09,30,13,43,15.60
2008,09,30,13,44,15.60
2008,09,30,13,45,15.70
2008,09,30,13,46,15.80
2008,09,30,13,47,15.80
2008,09,30,13,48,15.90
2008,09,30,13,49,16.10
2008,09,30,13,50,16.20
2008,09,30,13,51,16.30
2008,09,30,13,52,16.40
2008,09,30,13,53,16.50
2008,09,30,13,54,16.60
2008,09,30,13,55,16.70
2008,09,30,13,56,16.80
2008,09,30,13,57,16.90
2008,09,30,13,58,16.90
2008,09,30,13,59,17.00
2008,09,30,14,00,17.00
2008,09,30,14,01,17.00
2008,09,30,14,02,16.90
2008,09,30,14,03,16.80
2008,09,30,14,04,16.80
2008,09,30,14,05,16.70
2008,09,30,14,06,16.70
2008,09,30,14,07,16.70
2008,09,30,14,08,16.70
2008,09,30,14,09,16.70
2008,09,30,14,10,16.70
2008,09,30,14,11,16.70
2008,09,30,14,12,16.70
2008,09,30,14,13,16.70
2008,09,30,14,14,16.70
2008,09,30,14,15,16.60
2008,09,30,14,16,16.60
2008,09,30,14,17,16.60
2008,09,30,14,18,16.50
2008,09,30,14,19,16.50
2008,09,30,14,20,16.40
2008,09,30,14,21,16.30
2008,09,30,14,22,16.20
2008,09,30,14,23,16.20
2008,09,30,14,24,16.10
2008,09,30,14,25,16.00
2008,09,30,14,26,16.00
2008,09,30,14,27,16.00
2008,09,30,14,28,16.00
2008,09,30,14,29,16.00
2008,09,30,14,30,15.90
2008,09,30,14,31,15.90
2008,09,30,14,32,15.90
2008,09,30,14,33,15.90
2008,09,30,14,34,16.00
2008,09,30,14,35,16.00
2008,09,30,14,36,16.00
2008,09,30,14,37,16.00
2008,09,30,14,38,16.00
2008,09,30,14,39,16.10
2008,09,30,14,40,16.00
2008,09,30,14,41,16.00
2008,09,30,14,42,16.00
2008,09,30,14,43,15.90
2008,09,30,14,44,15.90
2008,09,30,14,45,15.90
2008,09,30,14,46,15.90
2008,09,30,14,47,15.90
2008,09,30,14,48,15.90
2008,09,30,14,49,15.90
2008,09,30,14,50,15.80
2008,09,30,14,51,15.70
2008,09,30,14,52,15.60
2008,09,30,14,53,15.50
2008,09,30,14,54,15.40
2008,09,30,14,55,15.40
2008,09,30,14,56,15.20
2008,09,30,14,57,15.10
2008,09,30,14,58,15.00
2008,09,30,14,59,15.00
2008,09,30,15,00,15.00
2008,09,30,15,01,15.00
2008,09,30,15,02,15.00
2008,09,30,15,03,15.00
2008,09,30,15,04,15.00
2008,09,30,15,05,15.00
2008,09,30,15,06,15.00
2008,09,30,15,07,15.00
2008,09,30,15,08,15.00
2008,09,30,15,09,15.00
2008,09,30,15,10,15.00
2008,09,30,15,11,14.90
2008,09,30,15,12,15.00
2008,09,30,15,13,15.00
2008,09,30,15,14,15.00
2008,09,30,15,15,15.00
2008,09,30,15,16,15.00
2008,09,30,15,17,15.00
2008,09,30,15,18,15.00
2008,09,30,15,19,15.00
2008,09,30,15,20,15.00
2008,09,30,15,21,14.90
2008,09,30,15,22,14.70
2008,09,30,15,23,14.50
2008,09,30,15,24,14.30
2008,09,30,15,25,14.20
2008,09,30,15,26,14.10
2008,09,30,15,27,14.00
2008,09,30,15,28,14.00
2008,09,30,15,29,13.90
2008,09,30,15,30,13.80
2008,09,30,15,31,13.60
2008,09,30,15,32,13.40
2008,09,30,15,33,13.20
2008,09,30,15,34,13.00
2008,09,30,15,35,12.80
2008,09,30,15,36,12.70
2008,09,30,15,37,12.60
2008,09,30,15,38,12.50
2008,09,30,15,39,12.50
2008,09,30,15,40,12.50
2008,09,30,15,41,12.40
2008,09,30,15,42,12.40
2008,09,30,15,43,12.40
2008,09,30,15,44,12.40
2008,09,30,15,45,12.50
2008,09,30,15,46,12.50
2008,09,30,15,47,12.60
2008,09,30,15,48,12.60
2008,09,30,15,49,12.80
2008,09,30,15,50,12.90
2008,09,30,15,51,13.10
2008,09,30,15,52,13.20
2008,09,30,15,53,13.40
2008,09,30,15,54,13.50
2008,09,30,15,55,13.60
2008,09,30,15,56,13.70
2008,09,30,15,57,13.80
2008,09,30,15,58,14.00
2008,09,30,15,59,14.00
2008,09,30,16,00,14.10
2008,09,30,16,01,14.00
2008,09,30,16,02,14.00
2008,09,30,16,03,13.90
2008,09,30,16,04,13.80
2008,09,30,16,05,13.80
2008,09,30,16,06,13.70
2008,09,30,16,07,13.50
2008,09,30,16,08,13.40
2008,09,30,16,09,13.30
2008,09,30,16,10,13.30
2008,09,30,16,11,13.10
2008,09,30,16,12,13.00
2008,09,30,16,13,12.90
2008,09,30,16,14,12.80
2008,09,30,16,15,12.70
2008,09,30,16,16,12.70
2008,09,30,16,17,12.50
2008,09,30,16,18,12.50
2008,09,30,16,19,12.40
2008,09,30,16,20,12.40
2008,09,30,16,21,12.40
2008,09,30,16,22,12.40
2008,09,30,16,23,12.40
2008,09,30,16,24,12.40
2008,09,30,16,25,12.40
2008,09,30,16,26,12.30
2008,09,30,16,27,12.30
2008,09,30,16,28,12.30
2008,09,30,16,29,12.30
2008,09,30,16,30,12.30
2008,09,30,16,31,12.30
2008,09,30,16,32,12.40
2008,09,30,16,33,12.40
2008,09,30,16,34,12.50
2008,09,30,16,35,12.50
2008,09,30,16,36,12.60
2008,09,30,16,37,12.60
2008,09,30,16,38,12.70
2008,09,30,16,39,12.70
2008,09,30,16,40,12.70
2008,09,30,16,41,12.70
2008,09,30,16,42,12.70
2008,09,30,16,43,12.70
2008,09,30,16,44,12.70
2008,09,30,16,45,12.60
2008,09,30,16,46,12.60
2008,09,30,16,47,12.60
2008,09,30,16,48,12.70
2008,09,30,16,49,12.70
2008,09,30,16,50,12.70
2008,09,30,16,51,12.70
2008,09,30,16,52,12.70
2008,09,30,16,53,12.70
2008,09,30,16,54,12.80
2008,09,30,16,55,12.80
2008,09,30,16,56,12.80
2008,09,30,16,57,12.90
2008,09,30,16,58,12.90
2008,09,30,16,59,13.10
2008,09,30,17,00,13.20
2008,09,30,17,01,13.30
2008,09,30,17,02,13.40
2008,09,30,17,03,13.50
2008,09,30,17,04,13.70
2008,09,30,17,05,13.80
2008,09,30,17,06,13.90
2008,09,30,17,07,14.00
2008,09,30,17,08,14.00
2008,09,30,17,09,14.00
2008,09,30,17,10,14.00
2008,09,30,17,11,13.90
2008,09,30,17,12,13.90
2008,09,30,17,13,13.90
2008,09,30,17,14,13.90
2008,09,30,17,15,13.90
2008,09,30,17,16,13.90
2008,09,30,17,17,13.90
2008,09,30,17,18,13.90
2008,09,30,17,19,13.80
2008,09,30,17,20,13.80
2008,09,30,17,21,13.80
2008,09,30,17,22,13.80
2008,09,30,17,23,13.80
2008,09,30,17,24,13.80
2008,09,30,17,25,13.80
2008,09,30,17,26,13.80
2008,09,30,17,27,13.90
2008,09,30,17,28,13.90
2008,09,30,17,29,13.80
2008,09,30,17,30,13.80
2008,09,30,17,31,13.70
2008,09,30,17,32,13.40
2008,09,30,17,33,13.10
2008,09,30,17,34,12.80
2008,09,30,17,35,12.60
2008,09,30,17,36,12.50
2008,09,30,17,37,12.50
2008,09,30,17,38,12.40
2008,09,30,17,39,12.40
2008,09,30,17,40,12.40
2008,09,30,17,41,12.40
2008,09,30,17,42,12.50
2008,09,30,17,43,12.60